Regional Weather Roundup
Issued by NWS

Home | Current Version | Previous Version | Graphics & Text | Print | Product List | Glossary Off
Versions: 1 2 3 4 5 6 7 8 9 10 11 12 13 14 15 16 17 18 19 20 21 22 23 24 25 26 27 28 29 30 31 32 33 34 35 36 37 38 39 40 41 42 43 44 45 46 47 48 49 50

309
ASUS43 KMPX 220210
RWRMN
WEATHER ROUNDUP FOR MINNESOTA
NATIONAL WEATHER SERVICE TWIN CITIES/CHANHASSEN MN
800 PM CST WED FEB 21 2018


NOTE: "FAIR" INDICATES FEW OR NO CLOUDS BELOW 12,000 FEET WITH NO
SIGNIFICANT WEATHER AND/OR OBSTRUCTIONS TO VISIBILITY. N/A MEANS
CURRENT SKY AND/OR WEATHER CONDITIONS ARE NOT AVAILABLE.

MNZ060>063-068>070-220300-
   Twin Cities Metro

CITY           SKY/WX    TMP DP  RH WIND       PRES   REMARKS
TWIN CITIES    FAIR      16   5  62 S3        30.65S
ST PAUL        FAIR      14   4  64 CALM      30.67S
CRYSTAL        FAIR      14   2  58 S3        30.63S
BLAINE         PTCLDY    14   3  62 SW5       30.64R WCI   6
LAKEVILLE        N/A      9   5  85 CALM      30.64F
EDEN PRAIRIE   FAIR      13   2  61 CALM      30.63F
SOUTH ST PAUL  FAIR      14   6  69 CALM      30.65F
LAKE ELMO      FAIR      10   5  79 S5        30.65F WCI   2
$$
MNZ001>005-007-008-013>017-022>024-027-028-220300-
   Northwest Minnesota

CITY           SKY/WX    TMP DP  RH WIND       PRES   REMARKS
BEMIDJI        FAIR      10  -5  50 SW3       30.49F
HALLOCK        FAIR      -2  -8  78 S9        30.51R WCI -18
ROSEAU         FAIR       3  -2  78 S10       30.49S WCI -12
WARROAD        FAIR       0  -6  78 S6        30.49S WCI -12
THIEF RVR FALL FAIR       0  -5  79 S12       30.53R WCI -17
CROOKSTON      FAIR      -2  -8  78 S8        30.55S WCI -17
FOSSTON        FAIR      -8 -11  84 S6        30.52R WCI -21
DETROIT LAKES  FAIR       9  -4  56 SE5       30.53S WCI   0
MOORHEAD       FAIR       3  -2  78 S9        30.55S WCI -11
PARK RAPIDS    FAIR       4  -7  60 SW5       30.51S WCI  -5
MAHNOMEN       FAIR       0  -8  70 S9        30.52R WCI -16
$$
MNZ006-009>011-018-025>026-220300-
   North Central Minnesota

CITY           SKY/WX    TMP DP  RH WIND       PRES   REMARKS
BAUDETTE       FAIR       3  -6  66 SW6       30.48R WCI  -8
FLAG ISLAND    FAIR       1  -6  71 SW8       30.47R WCI -12
INTL FALLS     FAIR      10  -3  55 W10       30.49R WCI  -4
WASKISH        FAIR       1  -6  71 W8        30.50S WCI -12
BIG FORK       FAIR       7  -4  61 S5        30.49S WCI  -2
LONGVILLE      FAIR       0  -6  78 CALM      30.53F
GRAND RAPIDS   FAIR      10  -2  58 S3        30.54S
CRANE LAKE     FAIR       0  -2  92 CALM      30.52R
ORR            FAIR      12   0  57 CALM      30.47R
COOK             N/A     12   0  57 SW5       30.50R WCI   4
WALKER         FAIR       9  -5  53 SW7       30.51S WCI  -2
$$
MNZ012-019>021-037-220300-
   Northeast Minnesota

CITY           SKY/WX    TMP DP  RH WIND       PRES   REMARKS
DULUTH         FAIR      14   1  56 SW8       30.54R WCI   3
ELY            FAIR      10   1  67 SW5       30.50R WCI   2
HIBBING        FAIR       4  -2  76 CALM      30.51R
EVELETH        FAIR     N/A N/A N/A SW3       30.53R
DULUTH HARBOR  FAIR      16   3  57 SW9       30.62R WCI   4
TWO HARBORS    FAIR      16   7  67 SW5       30.55R WCI   9
GRAND MARAIS     N/A     17   4  56 NW3       30.56S
G MARAIS ARPRT FAIR       9   1  72 SW3       30.47F
$$
MNZ029>031-032-039>041-046>048-054>057-064-220300-
   West Central Minnesota

CITY           SKY/WX    TMP DP  RH WIND       PRES   REMARKS
FERGUS FALLS   FAIR       7   0  72 SE7       30.56R WCI  -5
WHEATON        FAIR       0  -8  71 E12       30.58S WCI -18
MORRIS         FAIR       3  -4  72 S5        30.55F WCI  -6
ALEXANDRIA     FAIR       6  -2  69 S6        30.55S WCI  -4
ELBOW LAKE     FAIR       4  -2  75 SE8       30.55S WCI -10
WADENA         FAIR       0  -8  71 S5        30.54R WCI -10
GLENWOOD       FAIR       7   0  72 CALM      30.56F
APPLETON       FAIR       7  -2  66 CALM      30.58S
BENSON         FAIR       9   0  66 S5        30.58F WCI   0
ORTONVILLE     FAIR       7   0  72 S3        30.55F
MADISON        FAIR      10   1  67 S6        30.58S WCI   1
WILLMAR        FAIR       7   0  72 SE5       30.61S WCI  -2
$$
MNZ033>034-036-042>043-049>051-058-059-220300-
   Central Minnesota

CITY           SKY/WX    TMP DP  RH WIND       PRES   REMARKS
ST CLOUD       FAIR       6  -3  66 MISG      30.61R
SAUK CENTRE    FAIR       3  -4  70 CALM      30.57F
PAYNESVILLE    FAIR       8   1  72 SE3       30.59S
AITKIN         FAIR       9  -2  61 S6        30.55S WCI  -1
PINE RIVER     FAIR       1  -6  71 CALM      30.56S
BRAINERD       FAIR      11  -2  56 S6        30.56S WCI   1
STAPLES        FAIR       3  -6  66 S5        30.55S WCI  -6
LONG PRAIRIE   FAIR       3  -4  72 CALM      30.56S
LITTLE FALLS   FAIR       1  -8  66 SE3       30.59S
LITCHFIELD     FAIR      10   3  72 CALM      30.60F
BUFFALO        FAIR      12   3  65 CALM      30.63F
MAPLE LAKE     FAIR       9   2  74 CALM      30.62S
HUTCHINSON     FAIR       9   2  74 E3        30.62S
$$
MNZ037-044-045-052-053-220300-
   East Central Minnesota

CITY           SKY/WX    TMP DP  RH WIND       PRES   REMARKS
PRINCETON      FAIR       9   0  66 CALM      30.61S
CAMBRIDGE        N/A      9  -2  61 S5        30.63R WCI   0
RUSH CITY      FAIR       8  -2  64 CALM      30.62R
MOOSE LAKE     FAIR      10   0  61 S3        30.58R
HINCKLEY       FAIR       5   0  78 S3        30.61R
CLOQUET        FAIR      12   0  57 SW5       30.56R WCI   4
MCGREGOR       FAIR      12   0  57 SW3       30.57R
$$
MNZ071>073-080-081-089-090-097-098-220300-
   Southwest Minnesota

CITY           SKY/WX    TMP DP  RH WIND       PRES   REMARKS
MONTEVIDEO     FAIR      10   1  67 S3        30.59S
GRANITE FALLS  FAIR       7   0  71 S9        30.62R WCI  -7
CANBY          FAIR      12   3  67 S6        30.58S WCI   3
MARSHALL       FAIR       7   0  73 S9        30.60R WCI  -7
REDWOOD FALLS  FAIR       8   1  73 S7        30.61R WCI  -3
OLIVIA         FAIR      10   3  72 SE3       30.60R
PIPESTONE      FAIR      10   1  67 S6        30.54S WCI   1
WORTHINGTON    CLOUDY    13   7  77 SE5       30.57S WCI   5
JACKSON        FAIR      14   5  67 CALM      30.58F
TRACY          FAIR      12   4  71 S5        30.57F WCI   4
SLAYTON        MOCLDY     7   2  79 CALM      30.57S
$$
MNZ065>067-074>077-082>085-091>093-220300-
   South Central Minnesota

CITY           SKY/WX    TMP DP  RH WIND       PRES   REMARKS
MANKATO        FAIR      11   4  73 SE6       30.63F WCI   1
NEW ULM        FAIR      12   3  67 S3        30.62S
ST JAMES       FAIR      12   7  79 CALM      30.63S
FAIRMONT       FAIR      12   5  73 E5        30.62F WCI   4
GLENCOE        FAIR      13   5  71 CALM      30.61F
FARIBAULT      FAIR       9   3  78 CALM      30.63S
OWATONNA       FAIR      10   7  85 CALM      30.62S
WASECA         FAIR      12   7  79 CALM      30.64F
ALBERT LEA     MOCLDY    18  10  73 CALM      30.61S
$$
MNZ078>079-086>088-094>096-220300-
   Southeast Minnesota

CITY           SKY/WX    TMP DP  RH WIND       PRES   REMARKS
ROCHESTER      CLOUDY    16   9  74 CALM      30.61F
RED WING       FAIR      10   1  67 CALM      30.65F
STANTON        FAIR      10   5  80 CALM      30.63F
DODGE CENTER   MOCLDY    16  10  79 CALM      30.60F
WINONA         FAIR      18  14  86 CALM      30.66S
AUSTIN         CLOUDY    18  12  79 CALM      30.61S
PRESTON        FAIR      17  12  80 N3        30.61S
$$
ABBREVIATIONS USED IN REMARKS
   TC - TEMPERATURES IN CELSIUS
  WCI - WIND CHILL INDEX
   HX - HEAT INDEX
  VSB - VISIBILITY
$$




USA.gov is the U.S. government's official web portal to all federal, state and local government web resources and services.